Regional Weather Roundup
Issued by NWS

Home | Current Version | Previous Version | Text Only | Print | Product List | Glossary On
Versions: 1 2 3 4 5 6 7 8 9 10 11 12 13 14 15 16 17 18 19 20 21 22 23 24 25 26
000
ASUS42 KKEY 270010
RWRKEY

FLORIDA REGIONAL WEATHER ROUNDUP FOR THE FLORIDA KEYS
NATIONAL WEATHER SERVICE KEY WEST FLORIDA
800 PM EDT THU MAY 26 2016

...SOUTH FLORIDA AND THE KEYS...

CITY           SKY/WX    TMP DP  RH WIND       PRES   REMARKS
FORT MYERS     MOCLDY    81  66  60 E10G21    30.01R
SW REGIONAL AP CLOUDY    81  65  58 E16       30.02R
NAPLES         MOCLDY    83  62  49 NE12      30.00R
MIAMI          PTCLDY    80  66  62 NE14      30.01S
WEST KENDALL   CLEAR     79  64  60 E13       30.01R
HOMESTEAD      CLEAR     79  67  65 NE10      30.01R
MARATHON       CLEAR     81  62  52 E7        29.99S
BOCA CHICA NAS PTCLDY    80  65  59 E10       30.00S
KEY WEST INTL  CLEAR     80  66  62 E8        30.00S

...INTERNATIONAL WEATHER...

CITY           SKY/WX    TMP DP  RH WIND       PRES   REMARKS
NASSAU BAHAMAS PTCLDY    79  72  78 NE8       30.01F
CANCUN MEXICO  PTCLDY    84  75  74 E14       29.92F HX  92
COZUMEL MEXICO PTCLDY    81  75  83 E8        29.92R

ADJACENT COASTAL WATERS...

STATION/POSITION TIME  SKY/WX   TEMP    WIND        PRES    WAVE
                                AIR SEA DIR/SP/G            HT/PER
                 (UTC)          (F)     (DEG/KT/KT) (MB)    (FT/S)
PULASKI SHOAL LI 0000            80      70/  9/ 10 1015.7F
SAND KEY         2350            80     110/ 11/ 13 1016.1F
SOMBRERO KEY     NOT AVBL
LONG KEY         2300            81 84   80/  8/  9 1016.0S
MOLASSES REEF    0000            80 83   80/ 12/ 14 1016.2R
FOWEY ROCKS      0000            80 83   60/ 17/ 18 1016.8S

$$




USA.gov is the U.S. government's official web portal to all federal, state and local government web resources and services.